Location: ?p Thanh B�nh
(16.5833°N, 107.5333°E)
Time: 05:34:45
(UTC+00:00)

X-37B - Pass Details

Date: 29 October 2020
Orbit: 384 x 389 km, 45.0° (Epoch: 12 November)

Event Time Altitude Azimuth Distance (km) Brightness Sun altitude
Exits shadow 20:58:00 19° 124° (SE) 972 3.2 -26.4°
Drops below altitude 10° 21:00:06 10° 83° (E) 1,401 4.3 -25.9°
Sets 21:02:31 0° 65° (ENE) 2,256 5.3 -25.4°
